Wind_Speed
99 104 102 80 81 86 88 93 87 84 84 84 82 76 78 76 66 61 60 61 56 57 52 52 53 54 53 55 57 61 58 52 56 47 54 52 45 43 41 42 36 31 27 30
118 117 83 84 95 91 86 86 80 74 75 75 80 83 78 73 66 57 60 57 54 55 52 52 52 52 54 55 57 57 50 53 48 49 55 46 43 41 40 36 32 28 31 36
114 90 87 96 99 100 90 92 80 77 85 96 78 83 71 61 57 59 56 55 55 52 53 52 52 52 53 55 56 51 48 51 42 51 48 41 41 40 35 29 30 33 39 42
111 81 93 98 95 86 87 79 80 84 85 78 86 71 63 59 56 62 57 55 54 50 51 51 52 52 53 54 52 47 49 44 43 49 43 39 39 35 30 31 34 37 37 32
98 91 92 85 73 84 68 80 87 84 81 78 71 60 54 57 54 56 57 56 51 49 48 51 51 52 52 50 47 45 46 38 44 45 38 37 36 28 29 36 37 32 24 25
103 100 97 80 81 82 81 82 81 78 75 67 52 45 48 53 49 54 55 52 49 49 48 50 50 51 50 44 40 45 37 39 43 39 35 36 29 26 32 31 28 22 21 13
108 106 96 89 85 78 74 70 67 67 61 46 49 45 48 51 44 47 50 49 49 43 46 49 49 49 41 39 41 38 34 38 40 33 34 31 21 26 26 23 22 17 12 8
118 111 98 93 86 72 63 60 61 62 51 44 45 44 49 50 40 40 44 43 40 41 44 47 45 37 37 36 40 29 34 41 33 31 33 21 19 22 19 18 15 11 12 7
120 113 104 96 87 80 66 60 50 53 42 36 39 44 50 47 37 37 38 37 36 38 42 33 34 32 33 37 29 30 36 36 26 28 24 13 19 13 16 13 13 11 10 7
101 106 106 97 93 85 73 66 61 44 31 29 34 42 39 39 34 32 34 28 28 28 28 29 28 30 31 29 26 32 37 28 25 22 10 11 12 9 16 11 13 14 13 10
94 95 101 104 96 80 72 61 50 37 25 27 34 37 39 37 22 32 26 26 23 23 25 24 26 27 28 22 28 33 34 23 25 12 5 7 7 17 17 16 17 15 14 12
89 84 100 99 88 85 71 61 53 38 29 26 32 34 42 25 25 28 30 23 24 26 22 25 25 27 21 22 29 32 25 20 19 2 7 8 12 16 16 16 19 17 14 11
89 90 95 99 99 91 74 63 53 43 36 37 41 42 39 26 27 33 25 23 24 22 25 26 23 22 19 22 28 30 19 18 9 4 7 11 11 11 18 19 18 23 22 21
88 94 87 99 89 85 75 69 58 43 35 35 37 38 35 28 31 25 21 23 24 24 24 21 23 18 17 22 26 25 15 17 7 7 7 12 14 16 14 18 19 27 26 22
84 93 95 97 90 79 73 67 59 44 41 36 37 37 41 37 32 28 24 22 22 24 22 22 20 16 15 20 25 20 13 15 9 10 7 7 10 12 16 16 16 20 25 29
84 99 98 94 90 84 75 67 56 49 46 42 39 47 44 32 28 20 19 22 24 26 21 22 17 15 14 19 23 19 12 12 12 13 12 7 3 7 10 13 13 15 22 28
82 99 100 95 90 85 74 68 61 54 49 48 43 44 39 28 25 23 25 27 27 22 26 24 15 14 11 17 21 18 11 10 12 10 15 9 5 1 6 6 11 11 17 25
83 99 104 100 95 87 80 70 63 55 51 52 47 40 34 32 25 25 31 30 23 23 26 24 15 12 10 15 18 16 12 8 11 8 13 14 8 3 3 8 7 10 13 16
86 101 104 98 89 86 79 72 64 58 51 53 52 42 37 31 24 32 36 34 26 24 24 22 16 12 9 12 15 16 12 8 8 10 3 9 11 9 6 4 1 4 10 12
90 103 104 98 94 90 79 75 67 61 61 57 52 45 41 43 43 43 40 34 22 26 26 24 17 12 8 10 12 13 13 9 5 8 6 3 4 7 6 5 5 5 5 8
94 105 104 100 95 86 81 75 69 65 59 58 48 47 43 44 44 39 41 35 28 31 28 23 16 13 9 7 8 10 12 12 9 6 6 5 5 2 5 6 8 7 7 8
94 107 104 100 94 88 83 75 66 57 61 59 49 45 43 45 38 35 34 32 31 33 30 23 17 13 9 5 5 8 8 13 12 8 5 5 5 5 4 1 5 9 8 12
94 107 105 101 97 88 82 74 70 66 64 59 51 48 47 44 37 34 34 34 37 35 30 23 17 17 11 6 3 5 6 8 12 12 8 5 5 6 6 4 2 2 6 11
87 102 105 101 96 89 83 78 75 71 66 62 55 52 50 43 38 38 37 40 43 39 33 26 21 18 15 9 4 4 3 7 8 12 14 10 6 5 6 6 5 4 2 6
83 98 103 100 94 90 85 81 79 74 70 64 57 54 53 46 42 41 41 47 46 42 37 31 25 19 17 13 6 4 3 2 6 7 11 14 14 11 10 6 5 5 5 2
81 94 100 98 94 90 86 83 81 77 73 68 61 57 55 50 47 45 44 50 49 45 41 37 31 25 21 17 11 6 5 4 1 4 6 9 11 13 13 12 10 5 5 4
Wind_Direction
249 251 257 253 251 252 253 255 256 258 259 262 267 268 269 270 274 276 276 277 277 276 282 285 288 290 295 295 298 303 305 315 315 318 324 316 317 321 318 312 307 306 301 295
249 252 255 247 251 250 252 256 257 253 257 259 266 272 266 268 272 270 269 269 274 277 280 282 286 290 292 294 300 303 307 316 315 325 318 319 324 321 317 309 308 308 305 301
250 249 241 246 250 252 254 258 256 254 258 265 268 269 268 270 267 264 265 265 270 273 277 282 286 289 290 296 301 305 309 317 318 323 320 326 325 323 317 312 313 312 304 299
248 239 244 247 251 251 253 251 253 258 260 264 266 270 271 265 260 261 261 264 267 272 277 282 286 287 291 299 301 303 317 315 321 322 325 327 325 321 321 321 312 307 304 306
245 239 243 244 248 249 246 248 254 256 260 262 265 272 266 258 255 260 259 261 266 272 277 279 283 287 293 298 302 311 315 317 322 323 329 326 323 321 321 316 311 311 308 312
241 241 242 242 241 245 245 251 253 254 259 264 257 256 257 256 254 256 256 261 265 268 274 278 282 288 294 297 305 317 311 321 323 326 331 323 320 319 319 317 320 316 317 315
243 244 241 240 242 246 252 254 255 259 259 249 248 251 252 251 248 251 254 258 262 268 271 276 283 290 294 302 312 312 317 321 328 330 327 319 318 323 320 326 327 336 350 336
240 240 242 245 245 243 244 245 249 251 256 253 252 235 237 250 246 248 253 255 259 264 270 278 283 290 295 308 313 314 322 328 332 331 322 315 322 323 322 342 349 354 359 346
239 238 238 239 240 243 242 248 247 253 252 244 240 231 239 240 243 246 249 253 259 265 272 275 282 288 303 313 308 319 330 329 333 328 313 319 325 326 340 353 26 19 13 17
238 237 238 239 240 242 243 239 249 253 253 250 233 235 235 238 239 238 243 245 251 257 267 272 281 295 312 306 317 329 327 332 341 322 313 335 327 357 12 21 31 32 30 40
232 230 232 235 239 241 242 242 243 242 247 243 220 222 224 232 225 236 236 239 248 254 258 272 290 303 309 309 323 327 327 343 337 319 15 349 23 28 39 27 32 35 34 41
223 223 226 229 229 233 233 231 229 223 218 219 209 211 224 215 202 219 236 241 237 242 265 277 290 309 304 317 323 326 333 350 327 68 53 43 55 41 47 39 34 43 31 40
217 219 221 220 227 231 228 225 226 226 226 206 199 206 217 194 194 224 235 229 242 253 269 279 300 308 304 322 322 330 337 355 313 133 71 63 64 53 58 46 45 44 45 35
213 216 215 218 218 222 224 227 228 219 211 207 204 216 214 211 217 222 234 237 242 260 269 284 310 295 308 321 324 335 342 357 285 163 99 68 69 61 59 54 50 50 42 25
206 209 210 215 222 224 219 221 220 212 201 201 205 203 224 221 211 216 222 239 249 257 271 290 303 285 310 323 329 334 348 360 297 198 162 95 72 58 52 56 49 52 44 39
201 203 205 208 212 215 217 216 214 206 197 201 202 213 213 215 210 213 242 242 244 260 274 290 286 280 310 326 331 337 353 6 334 218 198 168 103 60 53 44 56 51 40 36
197 197 200 203 209 211 209 213 209 203 200 202 204 221 217 204 202 222 232 234 247 254 276 288 265 274 306 325 333 350 360 13 359 246 213 217 236 103 41 36 36 67 40 41
193 194 196 200 205 207 207 205 207 205 204 204 206 216 212 203 204 221 234 234 245 262 274 277 248 268 295 320 331 358 5 17 15 358 221 222 229 260 348 7 58 61 61 50
189 192 196 202 202 202 203 203 202 203 206 208 211 217 215 211 206 226 226 239 249 258 267 248 239 256 281 309 331 358 8 9 30 17 335 225 231 241 272 319 329 81 62 73
188 192 196 199 200 202 198 201 201 202 204 210 213 212 212 214 216 219 229 238 236 238 240 228 236 248 265 299 327 353 13 15 38 41 16 25 244 234 233 218 219 163 125 97
189 191 195 197 199 205 198 201 202 203 204 212 210 211 214 219 225 226 231 237 223 219 222 225 231 242 251 285 330 345 23 35 40 47 38 37 54 71 193 207 208 211 176 155
189 190 194 197 200 200 198 202 203 204 206 210 208 210 215 222 223 225 228 217 206 206 212 214 226 235 242 262 321 345 19 37 44 47 60 56 53 65 72 111 197 201 200 182
189 190 193 197 201 197 197 200 198 201 205 213 207 207 214 217 218 216 213 200 199 198 208 209 219 244 238 245 282 324 9 33 39 49 57 85 74 68 78 77 69 190 193 188
191 191 194 198 199 197 197 198 198 200 204 211 207 207 210 214 213 212 207 197 196 195 202 203 208 232 243 247 238 282 360 35 39 46 54 70 86 63 66 80 83 84 131 193
191 193 195 198 200 199 199 198 197 198 203 208 208 205 209 209 212 212 208 195 196 196 200 202 202 217 237 242 241 261 291 15 42 50 53 56 62 66 58 71 78 80 82 89
193 194 197 199 201 202 200 198 198 199 202 206 206 207 209 206 210 211 212 198 196 197 200 205 202 209 222 232 236 248 270 279 43 53 62 58 56 54 55 56 62 57 43 53
Height
10666 10659 10689 10714 10713 10718 10725 10733 10741 10747 10744 10746 10753 10764 10767 10769 10774 10777 10774 10770 10771 10769 10768 10765 10762 10755 10752 10747 10742 10735 10726 10716 10707 10697 10687 10677 10668 10658 10650 10643 10636 10631 10627 10623
10637 10661 10698 10671 10684 10696 10707 10715 10728 10729 10727 10731 10739 10748 10751 10761 10764 10764 10759 10758 10761 10759 10760 10756 10752 10747 10744 10739 10734 10726 10717 10709 10698 10689 10680 10670 10659 10650 10642 10636 10630 10625 10621 10616
10619 10668 10639 10651 10662 10681 10694 10702 10702 10712 10710 10719 10732 10731 10742 10748 10750 10747 10749 10749 10750 10750 10750 10747 10742 10740 10736 10731 10725 10717 10709 10699 10691 10682 10671 10660 10651 10643 10636 10630 10625 10620 10615 10608
10597 10636 10627 10638 10654 10665 10680 10676 10685 10693 10697 10716 10706 10731 10733 10731 10735 10733 10736 10739 10740 10740 10739 10736 10733 10731 10727 10723 10715 10708 10700 10692 10683 10674 10662 10653 10646 10638 10631 10625 10620 10615 10607 10600
10600 10603 10610 10625 10653 10641 10667 10658 10667 10678 10689 10699 10707 10717 10717 10710 10722 10724 10725 10726 10729 10730 10729 10726 10726 10723 10719 10714 10707 10701 10692 10685 10675 10667 10656 10648 10641 10634 10628 10623 10615 10608 10601 10594
10573 10578 10592 10625 10616 10628 10635 10648 10655 10667 10678 10693 10695 10704 10696 10697 10709 10712 10713 10718 10720 10719 10720 10719 10718 10715 10711 10706 10700 10692 10685 10677 10669 10657 10649 10644 10637 10632 10627 10618 10611 10603 10598 10591
10555 10563 10581 10597 10607 10620 10632 10641 10650 10659 10670 10681 10679 10693 10672 10686 10698 10700 10703 10708 10709 10711 10710 10711 10711 10706 10703 10698 10691 10685 10677 10669 10660 10651 10645 10641 10635 10631 10623 10614 10607 10601 10595 10591
10518 10540 10572 10586 10600 10614 10623 10630 10642 10645 10657 10668 10672 10677 10662 10672 10685 10691 10694 10697 10700 10702 10702 10704 10701 10699 10695 10690 10684 10677 10670 10661 10652 10646 10642 10638 10634 10628 10620 10612 10605 10600 10596 10593
10499 10526 10548 10566 10583 10597 10616 10627 10633 10638 10649 10656 10657 10655 10660 10665 10674 10682 10684 10688 10692 10693 10694 10695 10694 10692 10688 10682 10676 10670 10662 10654 10648 10643 10640 10636 10632 10626 10618 10612 10606 10602 10598 10593
10480 10523 10538 10558 10564 10581 10605 10609 10623 10636 10645 10648 10647 10649 10652 10658 10666 10672 10676 10682 10684 10685 10688 10688 10687 10685 10680 10675 10669 10662 10657 10649 10643 10640 10638 10635 10630 10624 10618 10613 10607 10604 10600 10596
10459 10501 10525 10531 10552 10579 10593 10609 10621 10629 10637 10638 10637 10640 10644 10650 10663 10665 10674 10676 10678 10680 10681 10682 10681 10678 10674 10668 10662 10658 10652 10645 10641 10638 10637 10634 10629 10624 10620 10615 10610 10606 10602 10599
10438 10476 10493 10525 10550 10559 10581 10596 10608 10620 10628 10632 10635 10636 10637 10650 10657 10661 10666 10671 10672 10674 10676 10677 10675 10671 10667 10663 10657 10654 10647 10642 10639 10638 10638 10633 10629 10625 10622 10619 10613 10608 10603 10601
10427 10455 10475 10511 10520 10541 10571 10587 10601 10612 10619 10622 10627 10629 10633 10645 10652 10656 10662 10665 10667 10670 10671 10671 10669 10665 10663 10658 10654 10650 10644 10640 10639 10638 10638 10634 10630 10627 10624 10621 10617 10611 10606 10603
10410 10434 10472 10491 10522 10533 10558 10574 10590 10605 10612 10617 10622 10624 10628 10639 10645 10652 10657 10659 10663 10665 10665 10665 10663 10661 10659 10655 10652 10646 10642 10639 10638 10638 10638 10635 10632 10628 10626 10624 10620 10614 10610 10606
10395 10426 10455 10475 10504 10525 10545 10563 10580 10595 10602 10610 10616 10620 10623 10633 10640 10646 10651 10655 10657 10658 10659 10659 10659 10657 10655 10653 10649 10644 10639 10637 10637 10636 10636 10636 10634 10631 10628 10626 10623 10618 10614 10608
10383 10413 10443 10469 10492 10513 10533 10551 10571 10583 10591 10599 10609 10609 10618 10628 10637 10642 10645 10647 10650 10652 10653 10654 10654 10654 10652 10650 10647 10642 10638 10635 10635 10634 10634 10634 10635 10633 10631 10628 10625 10621 10618 10612
10374 10401 10432 10457 10479 10499 10522 10541 10558 10570 10581 10591 10601 10601 10614 10623 10628 10635 10639 10643 10646 10647 10648 10649 10651 10651 10650 10648 10646 10641 10636 10634 10632 10632 10632 10632 10634 10634 10633 10631 10628 10625 10622 10618
10367 10393 10418 10438 10461 10489 10506 10528 10546 10560 10570 10582 10590 10598 10609 10616 10622 10629 10636 10640 10640 10642 10643 10645 10647 10647 10647 10647 10644 10640 10635 10633 10631 10629 10629 10630 10632 10633 10633 10633 10631 10628 10626 10624
10363 10387 10411 10432 10465 10478 10499 10519 10535 10550 10565 10575 10581 10593 10603 10611 10621 10624 10626 10630 10634 10635 10638 10641 10644 10645 10645 10645 10643 10639 10635 10633 10631 10629 10629 10628 10630 10631 10632 10633 10632 10631 10629 10627
10359 10379 10401 10428 10447 10464 10491 10508 10526 10541 10553 10565 10575 10589 10597 10603 10607 10610 10620 10623 10628 10630 10633 10638 10641 10642 10642 10643 10642 10639 10636 10633 10630 10629 10629 10628 10628 10630 10630 10631 10632 10632 10631 10630
10351 10372 10393 10417 10438 10465 10483 10500 10518 10533 10549 10555 10571 10582 10590 10596 10597 10609 10612 10617 10621 10624 10630 10636 10637 10639 10640 10641 10640 10639 10637 10633 10631 10629 10629 10629 10628 10629 10629 10629 10630 10631 10631 10632
10344 10367 10389 10411 10434 10455 10474 10493 10517 10538 10541 10549 10564 10574 10581 10584 10593 10599 10605 10610 10614 10619 10625 10630 10634 10636 10638 10639 10639 10638 10637 10634 10632 10630 10630 10629 10629 10629 10629 10629 10629 10629 10630 10631
10340 10359 10380 10401 10422 10447 10468 10492 10507 10520 10532 10540 10555 10565 10570 10578 10585 10592 10598 10603 10608 10614 10620 10626 10631 10634 10635 10636 10637 10638 10636 10635 10634 10632 10630 10630 10629 10629 10629 10629 10630 10629 10629 10630
10340 10359 10375 10395 10416 10439 10460 10479 10495 10508 10521 10529 10544 10556 10562 10571 10579 10585 10591 10596 10602 10609 10615 10621 10626 10630 10633 10634 10635 10636 10636 10636 10635 10634 10631 10630 10630 10630 10630 10630 10630 10631 10631 10631
10341 10357 10372 10391 10412 10432 10450 10467 10482 10496 10508 10519 10535 10546 10553 10564 10571 10578 10585 10590 10596 10603 10610 10615 10620 10626 10629 10631 10633 10634 10635 10635 10635 10635 10633 10632 10631 10630 10630 10631 10631 10631 10631 10632
10341 10355 10370 10387 10406 10424 10442 10459 10474 10486 10498 10509 10523 10536 10545 10556 10562 10570 10578 10584 10590 10597 10604 10609 10614 10620 10623 10627 10629 10632 10633 10634 10635 10635 10634 10634 10632 10632 10631 10631 10631 10631 10631 10632